Regional Weather Roundup
Issued by NWS

Home | Current Version | Previous Version | Text Only | Print | Product List | Glossary Off
Versions: 1 2 3 4 5 6 7 8 9 10 11 12 13 14 15 16 17 18 19 20 21 22 23 24 25 26 27

000
ASUS45 KBOU 281107
RWRCO

WEATHER ROUNDUP FOR COLORADO
NATIONAL WEATHER SERVICE DENVER/BOULDER CO
500 AM MDT SAT MAY 28 2016

NOTE: "FAIR" INDICATES FEW OR NO CLOUDS BELOW 12000 FEET WITH NO
SIGNIFICANT WEATHER AND/OR OBSTRUCTIONS TO VISIBILITY.

COZ001>005-013-030-031-281200-
...NORTHWEST COLORADO...

CITY           SKY/WX    TMP DP  RH WIND       PRES   REMARKS
CRAIG          FAIR      36  34  92 CALM      30.07R
HAYDEN         FAIR      37  34  87 E9        30.07S
MEEKER         FAIR      36  33  89 CALM      30.08R
MOUNT WERNER   NOT AVBL
STEAMBOAT SPGS CLOUDY    35  34  97 CALM      30.09R
WALDEN         CLOUDY    36  32  87 SE6       30.12R
$$

COZ006>008-011-281200-
...WEST CENTRAL VALLEYS...

CITY           SKY/WX    TMP DP  RH WIND       PRES   REMARKS
GRAND JUNCTION FAIR      45  40  82 E8        30.02R
MONTROSE       FAIR      42  33  70 S6        30.08R
EAGLE          FAIR      34  32  93 CALM      30.14R
RIFLE          FAIR      36  31  82 SE5       30.08R
DELTA          FAIR      46  37  71 E7        30.06R
NUCLA          FAIR      43  32  65 CALM      30.09R
$$

COZ017>023-064>068-281200-
...SOUTHWEST COLORADO...

CITY           SKY/WX    TMP DP  RH WIND       PRES   REMARKS
DURANGO        FAIR      32  28  85 CALM      30.09R
CORTEZ         FAIR      36  29  75 NE5       30.06R
PAGOSA SPRINGS FAIR      33  32  99 CALM      30.14R
TELLURIDE      FAIR      36  30  79 SE6       30.19R
WOLF CREEK PAS FAIR      30  19  64 SW13      30.29R WCI  20
$$

COZ009-010-012-014-032>034-037-058>063-281200-
...CENTRAL COLORADO...

CITY           SKY/WX    TMP DP  RH WIND       PRES   REMARKS
ASPEN          FAIR      32  28  85 SW7       30.12R WCI  26
BUENA VISTA    FAIR      32  28  83 CALM      30.12R
COPPER MTN     NOT AVBL
BERTHOUD PASS  CLOUDY    23  14  68 N26G37    30.21R WCI   6
COTTONWOOD PAS FAIR      37  27  65 NW5       30.16R
GUNNISON       FAIR      32  27  80 CALM      30.17S
KREMMLING      MOCLDY    32  30  93 CALM      30.14S
LEADVILLE      FAIR      25  22  88 NE8       30.16R WCI  16
MONARCH PASS   FAIR      27  27 100 W20G25    30.32S WCI  13
SALIDA         FAIR      36  32  86 N5        30.18R
SUNLIGHT       FAIR      34  30  86 CALM      30.24R
WILKERSON PASS FAIR      30  23  74 NW8G20    30.21R WCI  23
$$

COZ069>075-281200-
...SAN LUIS VALLEY/SANGRE DE CRISTO MOUNTAINS...

CITY           SKY/WX    TMP DP  RH WIND       PRES   REMARKS
ALAMOSA        FAIR      32  31  96 SE5       30.12R WCI  27
LA VETA PASS   FAIR      32  30  93 S12G20    30.16R WCI  23
SAGUACHE       FAIR      32  30  93 N8        30.14R WCI  25
$$

COZ035-036-038>040-281200-
...NORTHERN COLORADO FRONT RANGE...

CITY           SKY/WX    TMP DP  RH WIND       PRES   REMARKS
DENVER INTL AP FAIR      44  37  76 SW8       29.97R
DMNS CITY PARK   N/A     45  38  77 SE7       29.98R
AURORA         PTCLDY    42  39  88 S9        29.99R
FRONT RANGE AP NOT AVBL
ERIE MUNI ARPT FAIR      38  37  93 SW3       29.97S
BOULDER MUN AP FAIR      45  37  76 CALM      29.97R
CENTENNIAL     FAIR      40  34  79 SE3       29.99R
BROOMFIELD     FAIR      45  36  70 W5        29.98S
FORT COLLINS   FAIR      43  39  87 S3        29.97S
LONGMONT       FAIR      40  37  90 CALM      29.98S FOG
$$

COZ041-046-047-076>085-087-088-281200-
...PIKES PEAK/PALMER DIVIDE AND SOUTHERN FOOTHILLS...

CITY           SKY/WX    TMP DP  RH WIND       PRES   REMARKS
COLO. SPRINGS  FAIR      44  33  65 N9        30.01R
A. F. ACADEMY  FAIR      39  32  75 VRB1      30.01R
SCHRIEVER AFB  NOT AVBL
ELLICOTT       FAIR     N/A N/A N/A CALM      30.00R
FALCON         FAIR      43  32  66 NW7       30.03R
FORT CARSON    FAIR      43  35  73 NW6       29.98R
LIMON          FAIR      37  35  92 NW5       29.98R
MONUMENT HILL  FAIR      37  32  81 W5        30.04R
TRINIDAD       FAIR      39  36  89 SW10      30.02R
$$

COZ042>045-048>051-090-091-281200-
...NORTHEAST COLORADO...

CITY           SKY/WX    TMP DP  RH WIND       PRES   REMARKS
GREELEY ARPT   FAIR      39  37  93 CALM      29.97R
AKRON          FAIR      42  39  89 SW9       29.94R
BURLINGTON     FAIR      43  40  89 W10       29.93R
WRAY           FAIR      45  45 100 W6        29.92R
STERLING       FAIR      41  41 100 CALM      29.92R
HOLYOKE        FAIR      46  43  87 W6        29.91S
FORT MORGAN    FAIR      41  39  94 W9        29.96R
$$

COZ086-089-092>099-281200-
...SOUTHEAST COLORADO...

CITY           SKY/WX    TMP DP  RH WIND       PRES   REMARKS
PUEBLO         FAIR      44  40  85 CALM      29.97R
LA JUNTA       FAIR      49  45  86 SW8       29.96R
LAMAR          FAIR      41  40  96 S7        29.94R
SPRINGFIELD      N/A     41  39  93 W8        29.97R
$$




USA.gov is the U.S. government's official web portal to all federal, state and local government web resources and services.